Location: Colle Santa Colomba
(42.0333°N, 12.5667°E)
Time: 03:41:18
(UTC+00:00)

Cosmos 1626 Rocket - Pass Details

Date: 25 October 2021
Orbit: 603 x 631 km, 82.5° (Epoch: 28 November)

Event Time Altitude Azimuth Distance (km) Brightness Sun altitude
Rises 16:59:48 0° 357° (N) 2,865 6.9 -9.3°
Reaches altitude 10° 17:02:05 10° 4° (N) 1,957 6.0 -9.8°
Maximum altitude 17:06:16 47° 78° (ENE) 809 3.7 -10.5°
Drops below altitude 10° 17:10:25 10° 153° (SSE) 1,946 5.9 -11.3°
Sets 17:12:41 0° 159° (SSE) 2,847 6.8 -11.7°
